sat.trackr.live / text

‹ back to catalog

STARLINK-32302

NORAD 61621 · 2024-191A

PAYLOAD ACTIVE UNKNOWN

§ Identity

Operator
Country
US
Launch date
2024-10-23
Launch site
AFETR
Launch vehicle
Mass (kg)
RCS (m²)

Purposes: comms

External: N2YO · Heavens-Above · Gunter

§ Orbital elements

Epoch: 2026-09-20T23:04:06.383136Z

Period
94.27 min
Inclination
43.0031°
Eccentricity
0.0001228
Mean motion
15.27560671 rev/d
Perigee alt
482.3 km
Apogee alt
483.9 km
Semi-major
6,861.2 km
B*
-7.0254e-5
RAAN
131.4554°
Arg perigee
251.8598°
Mean anomaly
108.2120°
Rev number
10,815

§ Raw data

STARLINK-323021 61621U 24191A   26263.96118499 -.00002194  00000+0 -70254-4 0  99982 61621  43.0031 131.4554 0001228 251.8598 108.2120 15.27560671108152

JSON: /api/v1/satellites/61621 · /tle

For live sub-satellite position, see the globe view (requires WebGL).

§ Visibility from observer

Set your observer location to see the next 7 days of passes ≥ 10°. The values pass through the URL so the page stays shareable.

No JS? Fill the form by hand. The geolocation button needs JavaScript.